Wind_Speed
3 2 2 2 3 4 5 5 6 7 7 6 6 6 6 5 5 5 4 4 4 4 4 3 3 2 3 2 2 1 2 3 3 3 3 3 3 2 2 2 3 3 3
4 3 2 2 3 6 7 6 6 6 7 7 7 7 5 5 5 5 5 4 4 4 3 3 3 3 3 2 2 2 2 2 2 3 3 3 3 3 3 2 3 3 3
5 5 5 4 5 7 7 7 6 6 6 6 7 7 6 6 5 5 5 5 4 4 3 2 2 3 2 2 1 2 3 2 2 2 2 3 3 3 2 2 2 2 4
7 7 7 7 8 8 7 7 7 6 6 5 6 6 6 6 5 5 6 5 5 4 3 2 2 2 2 2 1 2 2 2 2 2 2 3 2 2 3 2 2 2 3
7 7 8 8 8 7 7 6 6 6 5 6 6 5 5 6 6 6 5 5 5 4 3 2 2 2 2 2 2 2 2 2 2 2 2 2 2 2 2 2 2 2 3
7 8 8 8 7 7 6 5 5 5 6 6 6 6 5 6 6 6 6 5 4 4 3 3 3 2 2 2 2 1 1 2 2 2 3 3 3 3 2 3 3 3 4
7 7 7 6 6 6 6 6 6 6 6 6 6 6 6 6 6 6 5 5 4 3 3 3 3 2 2 2 2 2 1 1 2 3 3 3 3 3 3 3 3 4 4
7 6 6 6 5 6 6 6 6 6 7 7 6 6 7 7 7 6 5 5 5 4 3 2 2 2 2 1 1 1 1 1 2 2 3 4 4 4 4 4 5 5 5
6 6 5 5 6 7 6 6 6 6 7 7 6 6 7 6 6 5 5 4 4 3 2 2 2 2 1 1 1 0 1 1 2 3 3 4 4 4 5 5 5 6 6
6 6 6 6 6 6 6 7 7 7 7 7 6 6 6 6 5 5 5 4 3 2 2 2 2 2 1 0 0 1 1 2 3 4 4 4 5 5 6 6 6 6 7
5 5 6 6 6 6 6 6 6 6 7 6 6 6 5 5 5 4 3 3 2 2 1 1 1 1 1 1 1 1 2 3 4 4 4 5 5 6 6 6 6 7 8
5 5 5 5 5 5 5 5 5 6 5 5 4 4 4 4 3 3 3 2 1 1 1 1 1 1 1 1 2 3 4 5 5 5 5 5 5 5 6 7 8 8 9
4 3 3 4 4 4 4 4 4 5 4 3 3 4 3 2 2 2 2 1 1 1 2 2 2 2 2 2 3 4 5 6 6 6 6 6 6 7 8 8 9 9 10
3 2 2 2 2 3 3 3 4 4 4 3 3 3 2 2 1 1 2 1 1 2 2 3 4 4 4 4 5 5 6 7 7 8 8 8 8 8 9 10 10 10 11
2 2 2 1 2 2 2 2 3 3 3 3 2 2 2 2 2 2 2 2 3 3 4 5 6 6 6 6 6 7 7 9 9 9 8 8 9 9 10 10 10 10 11
1 1 0 0 1 1 1 2 2 2 2 2 2 3 3 3 3 3 3 3 4 4 5 5 6 7 7 7 8 9 9 10 10 10 9 9 9 9 10 10 10 11 12
1 1 1 1 2 1 2 2 2 2 2 2 3 3 4 4 4 4 5 5 5 5 5 6 6 7 8 8 9 10 10 10 11 11 11 11 11 10 10 10 11 11 12
2 2 2 2 2 3 3 3 3 3 3 3 3 4 5 5 5 5 6 6 6 6 7 7 8 8 9 9 10 11 12 12 12 11 12 12 12 12 12 11 12 12 12
3 4 3 3 3 3 4 4 5 4 4 4 4 5 5 6 6 6 7 8 8 8 9 9 9 10 10 11 11 12 13 13 13 13 13 13 13 13 13 13 13 13 14
5 5 5 4 5 5 5 5 5 5 5 5 5 5 6 7 7 7 8 9 9 10 10 11 11 11 12 12 13 13 13 14 15 15 15 15 15 15 15 15 16 16 16
6 6 5 5 5 6 6 6 6 6 6 6 7 6 7 8 9 9 10 10 11 11 11 12 12 13 13 14 14 15 15 16 16 16 16 17 17 16 16 17 17 17 17
7 7 6 6 7 7 8 7 7 7 7 8 8 8 9 9 10 11 11 12 12 12 13 14 14 15 15 16 16 16 17 17 17 17 17 18 18 18 18 18 18 18 19
7 7 7 7 8 8 8 9 9 9 8 8 9 9 9 10 11 12 12 13 13 14 14 15 16 16 17 17 18 18 18 18 18 18 18 18 18 19 19 19 19 20 20
8 8 8 9 9 9 9 9 9 9 9 9 9 10 10 11 11 12 13 13 14 15 16 17 18 18 18 19 19 20 19 19 19 18 19 19 20 20 20 20 20 21 21
9 10 10 9 9 9 9 9 10 10 10 10 10 11 11 12 13 13 14 15 15 16 17 17 18 19 19 20 21 20 20 20 20 19 19 19 20 20 20 21 21 21 22
11 11 11 11 11 10 10 10 11 11 11 12 12 13 13 13 14 15 16 16 16 17 18 19 19 20 20 21 22 22 22 22 21 21 20 19 20 21 22 22 22 22 23
Wind_Direction
84 108 128 144 162 170 162 158 159 162 159 149 151 151 153 150 150 142 140 139 139 143 139 126 129 147 156 157 156 154 162 168 181 196 194 190 190 196 202 210 217 222 207
80 85 106 114 160 163 160 158 155 157 161 158 155 154 154 146 141 137 136 135 135 134 133 105 94 134 154 166 183 171 146 160 178 189 204 212 210 208 203 214 218 220 206
81 83 86 89 126 146 154 153 154 155 155 155 158 159 153 147 145 134 131 133 128 136 141 109 101 118 138 162 175 159 150 162 164 171 207 219 218 211 208 210 218 230 217
86 90 92 93 113 129 135 136 143 150 156 157 158 158 152 144 143 139 133 134 135 139 136 119 119 127 144 155 144 124 135 141 154 174 196 214 218 218 228 220 218 221 219
89 96 95 100 109 118 123 126 136 153 157 155 150 153 150 147 145 141 131 131 128 133 134 122 124 120 120 109 123 112 129 157 160 181 181 191 197 196 206 225 225 221 225
93 98 100 103 109 116 122 133 145 153 153 151 148 146 141 142 137 135 130 122 121 119 115 101 108 110 112 101 118 147 200 200 190 187 194 199 210 220 218 230 229 225 237
92 95 101 109 112 117 121 127 127 126 130 136 138 140 137 132 131 132 127 124 123 114 96 95 100 100 107 108 126 148 169 201 185 192 205 210 219 229 233 240 232 231 237
91 91 100 111 119 123 126 123 120 122 126 131 135 139 138 129 126 125 120 116 113 102 90 87 88 91 101 102 108 158 151 185 211 208 212 218 230 235 240 250 247 246 240
89 93 102 111 119 122 126 122 126 133 134 133 136 139 136 129 124 122 116 111 107 105 88 84 91 86 85 60 25 60 238 227 233 233 237 233 233 241 248 257 257 258 255
88 89 99 113 126 126 125 125 127 129 132 132 132 137 137 132 126 124 122 119 117 104 91 87 102 106 102 81 348 287 282 282 268 264 259 249 245 248 253 260 263 258 260
93 97 100 107 120 130 132 131 134 132 130 128 127 134 135 131 128 133 134 132 131 126 123 76 84 132 186 203 249 286 289 289 286 271 270 262 258 258 260 264 266 265 264
94 98 100 106 116 125 135 139 148 143 137 139 139 145 138 132 133 134 143 143 151 176 203 241 255 278 267 259 276 288 291 293 288 279 278 265 260 262 263 264 263 264 264
93 100 102 102 113 121 130 140 157 157 150 152 162 162 151 147 157 161 177 186 221 232 246 254 261 275 280 276 277 282 289 294 287 280 277 270 263 263 265 267 265 262 266
95 100 116 111 127 138 138 141 158 158 153 163 170 176 182 191 205 209 234 251 272 280 276 278 277 282 283 285 283 289 290 291 291 283 273 274 274 272 271 272 269 266 268
88 105 108 123 137 142 149 154 160 168 175 182 203 206 210 223 230 246 267 277 292 297 288 287 288 289 290 294 296 295 295 292 289 288 282 277 276 277 276 275 270 269 271
48 45 13 278 197 157 183 192 190 187 194 214 226 231 241 250 252 268 273 279 291 293 290 288 287 288 289 291 293 293 292 291 293 293 285 282 281 281 280 277 273 268 269
24 4 328 305 256 265 247 232 228 228 237 251 255 256 261 260 260 272 280 286 290 292 291 289 287 285 286 286 289 290 290 289 290 289 285 284 284 281 280 278 276 274 270
348 341 330 316 287 280 277 260 256 251 254 258 264 267 268 265 266 271 277 283 287 289 291 294 291 287 286 284 282 283 285 287 289 289 286 282 282 281 279 276 273 273 274
325 322 318 311 285 281 285 277 261 257 258 260 271 275 274 270 270 274 277 280 281 285 288 292 292 292 291 289 287 286 286 286 285 285 287 285 284 282 278 274 271 270 272
322 319 310 293 278 274 279 280 267 262 264 268 274 273 276 273 274 280 282 284 283 285 288 289 289 290 291 291 290 288 286 284 284 284 287 288 287 285 280 275 271 272 273
317 311 308 298 286 280 281 276 273 264 268 275 279 279 277 277 279 283 285 286 288 289 290 291 291 291 291 290 289 286 285 284 284 282 284 286 286 283 280 277 275 276 276
312 308 302 293 288 282 279 274 272 268 272 279 282 284 287 286 282 281 283 285 287 289 290 290 292 293 292 290 289 288 288 286 284 281 283 284 283 279 277 277 275 277 279
305 301 298 294 289 286 282 277 272 270 276 282 285 288 291 292 289 287 288 287 287 289 291 292 292 292 291 290 290 290 291 287 286 285 285 285 286 283 281 281 276 276 278
301 301 300 296 290 290 285 281 278 275 277 281 285 289 291 293 291 291 292 291 291 292 293 292 292 291 291 291 290 290 288 288 287 286 284 284 284 285 283 281 279 278 279
294 299 304 301 296 291 287 285 281 282 279 285 290 293 294 295 293 295 295 294 294 294 294 294 294 292 291 292 291 289 286 285 287 286 285 286 286 286 287 285 283 282 281
295 298 300 301 299 294 290 285 284 286 286 287 290 293 295 297 298 299 298 295 293 293 294 293 293 293 293 294 293 289 286 286 287 286 285 285 286 287 287 287 285 283 281
Height
5885 5884 5883 5882 5881 5882 5883 5884 5885 5886 5886 5887 5888 5888 5889 5889 5889 5889 5889 5889 5889 5890 5890 5890 5890 5890 5890 5891 5891 5891 5891 5892 5892 5892 5893 5893 5894 5894 5895 5895 5896 5896 5896
5885 5884 5882 5879 5878 5879 5882 5884 5885 5886 5887 5887 5888 5888 5889 5889 5890 5890 5889 5890 5890 5890 5890 5890 5890 5890 5890 5891 5891 5891 5891 5892 5892 5893 5893 5893 5894 5894 5894 5895 5895 5896 5896
5886 5884 5882 5878 5874 5877 5882 5885 5886 5886 5887 5888 5888 5889 5889 5890 5890 5890 5890 5890 5890 5890 5890 5890 5890 5890 5891 5891 5891 5891 5891 5892 5892 5893 5893 5893 5893 5893 5894 5894 5895 5895 5895
5887 5885 5883 5881 5880 5881 5884 5885 5886 5887 5887 5888 5888 5889 5889 5890 5890 5890 5890 5890 5890 5890 5891 5891 5891 5891 5891 5891 5891 5891 5892 5892 5892 5892 5893 5893 5893 5893 5894 5894 5895 5895 5895
5888 5887 5886 5885 5884 5885 5886 5887 5887 5887 5888 5888 5888 5889 5889 5890 5890 5890 5890 5890 5890 5891 5891 5891 5891 5891 5891 5891 5891 5892 5892 5892 5892 5892 5893 5893 5893 5894 5894 5895 5895 5895 5895
5889 5888 5888 5887 5887 5887 5887 5888 5888 5888 5888 5888 5889 5889 5890 5890 5890 5890 5891 5891 5891 5891 5891 5891 5891 5891 5891 5891 5891 5891 5892 5892 5892 5892 5893 5893 5893 5893 5894 5894 5894 5894 5895
5890 5890 5889 5889 5889 5888 5888 5888 5889 5889 5889 5889 5889 5890 5890 5890 5891 5891 5891 5891 5891 5891 5891 5891 5891 5891 5891 5891 5891 5891 5891 5892 5892 5892 5892 5893 5893 5893 5894 5894 5894 5894 5894
5891 5891 5890 5890 5890 5890 5890 5890 5890 5890 5890 5890 5890 5890 5891 5891 5891 5891 5891 5891 5891 5891 5892 5891 5892 5892 5892 5892 5891 5891 5891 5892 5892 5892 5892 5892 5893 5893 5893 5893 5893 5893 5894
5892 5892 5891 5891 5891 5890 5891 5891 5891 5891 5891 5891 5891 5891 5891 5891 5892 5892 5892 5892 5892 5892 5892 5892 5892 5891 5891 5891 5891 5891 5891 5891 5891 5891 5892 5892 5892 5892 5893 5893 5892 5892 5893
5893 5893 5893 5892 5892 5892 5892 5892 5892 5892 5891 5891 5891 5892 5892 5892 5892 5892 5892 5892 5892 5892 5892 5892 5892 5891 5891 5891 5891 5891 5891 5891 5891 5891 5891 5891 5891 5891 5891 5892 5891 5891 5891
5894 5894 5894 5893 5893 5893 5893 5893 5893 5892 5892 5892 5892 5892 5892 5892 5892 5892 5892 5892 5892 5892 5892 5892 5891 5891 5891 5891 5891 5890 5890 5890 5890 5890 5890 5890 5890 5890 5890 5890 5890 5890 5890
5895 5895 5895 5894 5894 5894 5894 5893 5893 5893 5893 5893 5893 5893 5893 5893 5893 5892 5892 5892 5892 5892 5891 5891 5891 5890 5890 5890 5890 5890 5890 5889 5889 5888 5889 5889 5889 5889 5889 5889 5888 5888 5888
5897 5896 5896 5896 5895 5895 5894 5894 5893 5893 5893 5893 5893 5893 5893 5893 5893 5893 5893 5892 5892 5891 5891 5890 5890 5890 5890 5889 5889 5889 5889 5888 5888 5887 5887 5887 5887 5887 5887 5887 5886 5886 5886
5897 5897 5897 5896 5896 5895 5895 5895 5894 5894 5894 5894 5893 5893 5893 5893 5892 5892 5892 5892 5891 5891 5890 5890 5890 5889 5889 5888 5888 5888 5888 5887 5886 5885 5885 5885 5885 5885 5885 5885 5884 5884 5884
5898 5897 5897 5897 5896 5896 5895 5895 5895 5894 5894 5894 5893 5893 5893 5892 5892 5892 5891 5891 5891 5890 5889 5889 5889 5888 5888 5888 5887 5887 5886 5885 5884 5884 5884 5883 5883 5883 5883 5882 5882 5882 5881
5898 5897 5897 5896 5896 5896 5895 5895 5895 5894 5894 5893 5893 5893 5892 5892 5892 5891 5891 5891 5890 5889 5889 5888 5888 5887 5887 5886 5886 5885 5884 5883 5883 5882 5881 5881 5881 5880 5880 5880 5879 5879 5879
5898 5898 5897 5896 5896 5895 5895 5894 5894 5894 5893 5893 5892 5892 5892 5891 5891 5890 5890 5890 5889 5888 5887 5887 5886 5886 5885 5885 5884 5883 5882 5881 5880 5879 5879 5878 5878 5878 5877 5877 5876 5876 5876
5898 5897 5897 5896 5895 5895 5894 5893 5893 5893 5893 5892 5892 5891 5890 5890 5889 5889 5888 5888 5887 5887 5886 5885 5884 5884 5883 5882 5881 5881 5880 5879 5878 5877 5876 5876 5875 5874 5874 5873 5873 5873 5872
5898 5897 5896 5895 5894 5894 5893 5893 5892 5892 5891 5891 5890 5890 5889 5889 5888 5887 5887 5886 5885 5885 5884 5883 5882 5882 5881 5880 5879 5878 5877 5876 5875 5874 5874 5872 5871 5871 5870 5870 5870 5869 5869
5897 5896 5895 5894 5893 5893 5892 5892 5891 5890 5890 5890 5889 5888 5887 5887 5886 5886 5885 5884 5883 5883 5882 5881 5880 5879 5878 5877 5876 5875 5874 5873 5872 5871 5870 5869 5868 5867 5866 5866 5865 5865 5865
5896 5894 5893 5892 5891 5891 5890 5890 5890 5889 5889 5888 5888 5887 5886 5885 5885 5884 5883 5882 5881 5880 5879 5878 5877 5876 5875 5874 5873 5872 5871 5869 5868 5867 5866 5865 5864 5863 5862 5861 5861 5860 5860
5894 5893 5892 5891 5890 5889 5889 5888 5888 5888 5887 5887 5886 5885 5884 5883 5882 5881 5880 5879 5878 5877 5876 5875 5874 5873 5871 5870 5869 5868 5867 5866 5864 5863 5862 5861 5860 5859 5858 5856 5856 5855 5855
5893 5892 5891 5890 5889 5888 5887 5887 5886 5886 5885 5884 5884 5883 5882 5881 5880 5879 5878 5877 5875 5874 5873 5872 5870 5869 5867 5866 5864 5863 5862 5861 5859 5858 5857 5856 5854 5854 5852 5851 5851 5850 5849
5892 5891 5890 5888 5887 5886 5885 5884 5884 5883 5883 5882 5881 5880 5880 5879 5877 5876 5875 5873 5872 5871 5869 5868 5866 5865 5863 5861 5860 5858 5857 5856 5854 5853 5852 5851 5849 5848 5847 5846 5845 5844 5843
5890 5889 5888 5886 5885 5884 5883 5882 5881 5881 5880 5879 5879 5878 5877 5876 5874 5873 5872 5871 5869 5867 5865 5864 5862 5860 5859 5857 5855 5853 5852 5850 5849 5848 5847 5846 5844 5843 5842 5840 5839 5838 5837
5888 5887 5886 5884 5883 5882 5881 5880 5879 5878 5878 5877 5876 5875 5874 5872 5871 5870 5868 5867 5865 5863 5861 5860 5858 5856 5854 5852 5850 5848 5846 5845 5844 5842 5842 5840 5839 5838 5836 5834 5833 5832 5831